Tracking 20748 objects as of 4-Jun-2020
HD Live streaming from Space Station
objects crossing your sky now
Track the most recent launched group of Starlink satellites

ARIANE 5 DEB (SYLDA)

Track ARIANE 5 DEB (SYLDA) now!
10-day predictions


NORAD ID: 40666
Int'l Code: 2015-026D
Perigee: 279.1 km
Apogee: 24,492.8 km
Inclination: 4.0 °
Period: 426.1 minutes
Semi major axis: 18756 km
RCS: Unknown
Launch date: May 27, 2015
Source: France (FR)
Launch site: FRENCH GUIANA (FRGUI)

Note: This is SATELLITE DEBRIS
aabbcc
Your satellite tracking list
Your tracking list is empty




NASA's NSSDC Master Catalog

Two Line Element Set (TLE):
1 40666U 15026D   20155.71596601 +.00006865 +00000-0 +15212-2 0  9992
2 40666 004.0182 064.9164 6454606 098.5410 333.9926 03.37956049053949
Source of the keplerian elements: AFSPC